This is the latest recevied weather packets stored in our database for station/object HOWARD. If no packets are shown the sender has not sent any weather packets the latest 10 day(s).
| Time | Temp. | Humidity | Pressure | Rain* | Wind** | Luminosity | Snow |
|---|---|---|---|---|---|---|---|
| 1787928934 | 13.33° C | 36% | 1017.3 hPa | 0 mm | - | - | - |
| 1787928877 | 13.33° C | 36% | 1017.3 hPa | 0 mm | - | - | - |
| 1787928277 | 12.78° C | 36% | 1018 hPa | 0 mm | - | - | - |
| 1787927677 | 13.33° C | 36% | 1018 hPa | 0 mm | - | - | - |
| 1787927077 | 13.33° C | 35% | 1018 hPa | 0 mm | - | - | - |
| 1787926477 | 12.78° C | 36% | 1017.8 hPa | 0 mm | - | - | - |
| 1787925877 | 13.89° C | 37% | 1017.8 hPa | 0 mm | - | - | - |
| 1787925277 | 12.78° C | 38% | 1017.8 hPa | 0 mm | - | - | - |
| 1787924677 | 12.78° C | 39% | 1017.6 hPa | 0 mm | - | - | - |
| 1787924185 | 12.78° C | 41% | 1017.5 hPa | 0 mm | - | - | - |
| 1787924077 | 12.78° C | 41% | 1017.5 hPa | 0 mm | - | - | - |
| 1787923581 | 12.78° C | 42% | 1017.4 hPa | 0 mm | - | - | - |
| 1787923477 | 12.78° C | 42% | 1017.4 hPa | 0 mm | - | - | - |
| 1787922877 | 12.78° C | 44% | 1017.4 hPa | 0 mm | - | - | - |
| 1787922277 | 12.22° C | 45% | 1017.3 hPa | 0 mm | - | - | - |
| 1787921677 | 12.22° C | 48% | 1017.4 hPa | 0 mm | - | - | - |
| 1787921077 | 12.22° C | 51% | 1017.5 hPa | 0 mm | - | - | - |
| 1787920477 | 12.22° C | 53% | 1017.4 hPa | 0 mm | - | - | - |
| 1787919877 | 12.22° C | 55% | 1018.2 hPa | 0 mm | - | - | - |
| 1787919277 | 12.22° C | 57% | 1018.2 hPa | 0 mm | - | - | - |
| 1787918677 | 12.22° C | 57% | 1018.3 hPa | 0 mm | - | - | - |
| 1787918077 | 12.22° C | 57% | 1018.3 hPa | 0 mm | - | - | - |
| 1787917477 | 12.22° C | 57% | 1018.1 hPa | 0 mm | - | - | - |
| 1787916947 | 11.67° C | 58% | 1018.2 hPa | 0 mm | - | - | - |
| 1787916877 | 11.67° C | 58% | 1018.2 hPa | 0 mm | - | - | - |
* Rain latest hour (hover to see other rain measurements)
** Current wind speed in m/s (hover to see current wind gust speed)